Nashville, TN

3:34 PM CST on December 09, 2019 (GMT -0600)
Nashville International

Weather History for KBNA - November, 2019

Change the Weather History Date:

Tuesday, November 19, 2019

  Actual Average Record
Temperature  
Mean Temperature 52 °F 48 °F  
Max Temperature 65 °F 59 °F 80 °F (1942)
Min Temperature 40 °F 38 °F 14 °F (1914)
Degree Days  
Heating Degree Days 12    
Month to date heating degree days 397  
Since 1 July heating degree days 540  
Cooling Degree Days 0    
Month to date cooling degree days 0  
Year to date cooling degree days 2280  
Growing Degree Days 2 (Base 50)    
Moisture  
Dew Point 37 °F    
Average Humidity 61    
Maximum Humidity 80    
Minimum Humidity 36    
Precipitation  
Precipitation T in 0.17 in 2.20 in (1988)
Month to date precipitation 1.09 2.52  
Year to date precipitation 54.97 41.22  
Sea Level Pressure  
Sea Level Pressure 29.88 in    
Wind  
Wind Speed 6 mph ()    
Max Wind Speed 21 mph    
Max Gust Speed 30 mph    
Visibility 9.8 miles    
Events Rain    
T = Trace of Precipitation, MM = Missing Value Source: Averaged Metar Reports

Daily Weather History Graph

Daily Weather History Graph

Search for Another Location

Airport or City:

Astronomy

Nov. 19, 2019 Rise Set
Actual Time 6:27 AM CST 4:36 PM CST
Civil Twilight 5:59 AM CST 5:04 PM CST
Nautical Twilight 5:28 AM CST 5:35 PM CST
Astronomical Twilight 4:57 AM CST 6:05 PM CST
Moon 11:29 PM CST (11/19) 12:38 PM CST (11/19)
Length of Visible Light 11h 04m
Length of Day
10h 09m
Waning Gibbous, 51% of the Moon is Illuminated
Nov 19
Waning Gibbous
Nov 19
Last Quarter
Nov 26
New
Dec 4
First Quarter
Dec 11
Full

Hourly Weather History & Observations

Time (CST) Temp. Windchill Dew Point Humidity Pressure Visibility Wind Dir Wind Speed Gust Speed Precip Events Conditions
12:53 AM 42.1 °F 37.7 °F 34.0 °F 73% 29.85 in 10.0 mi SSW 6.9 mph - N/A   Overcast
1:53 AM 42.1 °F 38.4 °F 35.1 °F 76% 29.84 in 10.0 mi South 5.8 mph - N/A   Overcast
2:53 AM 43.0 °F 40.3 °F 36.0 °F 76% 29.84 in 9.0 mi South 4.6 mph - 0.00 in Rain Light Rain
3:53 AM 43.0 °F 40.3 °F 36.0 °F 76% 29.83 in 10.0 mi SSW 4.6 mph - 0.00 in   Overcast
4:53 AM 43.0 °F - 37.0 °F 80% 29.83 in 7.0 mi Calm Calm - 0.00 in Rain Light Rain
5:53 AM 44.1 °F 41.5 °F 37.0 °F 76% 29.82 in 10.0 mi SSE 4.6 mph - 0.00 in   Overcast
6:53 AM 45.0 °F 43.5 °F 37.0 °F 74% 29.83 in 10.0 mi SSE 3.5 mph - N/A   Overcast
7:53 AM 45.0 °F 42.6 °F 37.9 °F 76% 29.84 in 10.0 mi South 4.6 mph - N/A   Overcast
8:53 AM 48.9 °F - 37.9 °F 66% 29.86 in 10.0 mi South 5.8 mph - N/A   Overcast
9:53 AM 52.0 °F - 37.9 °F 59% 29.84 in 10.0 mi South 8.1 mph - N/A   Mostly Cloudy
10:53 AM 57.0 °F - 39.0 °F 51% 29.84 in 10.0 mi South 11.5 mph - N/A   Partly Cloudy
11:53 AM 59.0 °F - 39.0 °F 48% 29.81 in 10.0 mi SW 10.4 mph - N/A   Partly Cloudy
12:53 PM 62.1 °F - 39.9 °F 44% 29.81 in 10.0 mi WSW 9.2 mph - N/A   Scattered Clouds
1:53 PM 63.0 °F - 39.0 °F 41% 29.81 in 10.0 mi WNW 13.8 mph 26.5 mph N/A   Mostly Cloudy
2:53 PM 64.9 °F - 39.0 °F 39% 29.83 in 10.0 mi WNW 15.0 mph 21.9 mph N/A   Mostly Cloudy
3:53 PM 63.0 °F - 37.0 °F 38% 29.86 in 10.0 mi West 13.8 mph 20.7 mph N/A   Scattered Clouds
4:53 PM 60.1 °F - 34.0 °F 38% 29.90 in 10.0 mi WNW 11.5 mph 20.7 mph N/A   Partly Cloudy
5:53 PM 57.0 °F - 37.0 °F 47% 29.94 in 10.0 mi NNW 15.0 mph 29.9 mph N/A   Partly Cloudy
6:53 PM 53.1 °F - 36.0 °F 52% 29.99 in 10.0 mi NW 12.7 mph - N/A   Clear
7:53 PM 50.0 °F - 36.0 °F 59% 30.01 in 10.0 mi Variable 3.5 mph - N/A   Clear
8:53 PM 46.9 °F - 35.1 °F 63% 30.02 in 10.0 mi Calm Calm - N/A   Clear
10:53 PM 42.1 °F - 35.1 °F 76% 30.04 in 10.0 mi Calm Calm - N/A   Clear
11:53 PM 41.0 °F - 34.0 °F 76% 30.04 in 10.0 mi Calm Calm - N/A   Clear